Weather History for Norwood, MA

Change the Weather History Date:

Monday, February 11, 2013

  Actual Average Record
Temperature  
Mean Temperature 26 °F -  
Max Temperature 45 °F 36 °F 57 °F (2009)
Min Temperature 7 °F 17 °F -6 °F (2014)
Degree Days  
Heating Degree Days 39    
Moisture  
Dew Point 34 °F    
Average Humidity 94    
Maximum Humidity 100    
Minimum Humidity 75    
Precipitation  
Precipitation 0.13 in - - ()
Sea Level Pressure  
Sea Level Pressure 29.92 in    
Wind  
Wind Speed 3 mph (South)    
Max Wind Speed 9 mph    
Max Gust Speed -    
Visibility 6 miles    
Events Fog , Rain    
Averages and records for this station are not official NWS values.
T = Trace of Precipitation, MM = Missing Value Source: NWS Daily Summary

Daily Weather History Graph

Daily Weather History Graph

Search for Another Location

Airport:

Trip Planner

Search our weather history database for the weather conditions in past years. The results will help you decide how hot, cold, wet, or windy it might be!

Date:

Astronomy

Feb. 11, 2013 Rise Set
Actual Time 6:45 AM EST 5:12 PM EST
Civil Twilight 6:16 AM EST 5:41 PM EST
Nautical Twilight 5:44 AM EST 6:14 PM EST
Astronomical Twilight 5:11 AM EST 6:47 PM EST
Moon 7:06 AM EST (2/11) 7:09 PM EST (2/11)
Length of Visible Light 11h 24m
Length of Day
10h 26m
Waxing Crescent, 3% of the Moon is Illuminated
Feb 11
Waxing Crescent
Feb 17
First Quarter
Feb 25
Full
Mar 4
Last Quarter
Mar 11
New

Hourly Weather History & Observations

Time (EST) Temp. Windchill Dew Point Humidity Pressure Visibility Wind Dir Wind Speed Gust Speed Precip Events Conditions
12:53 AM 7.0 °F - 5.0 °F 92% 30.35 in 10.0 mi Calm Calm - N/A   Clear
1:53 AM 10.0 °F - 7.0 °F 87% 30.32 in 10.0 mi Calm Calm - N/A   Clear
2:53 AM 10.9 °F - 9.0 °F 92% 30.30 in 10.0 mi Calm Calm - N/A   Clear
3:53 AM 14.0 °F - 12.0 °F 92% 30.29 in 10.0 mi Calm Calm - N/A   Clear
4:53 AM 16.0 °F - 14.0 °F 92% 30.26 in 10.0 mi Calm Calm - N/A   Clear
5:53 AM 17.1 °F - 14.0 °F 88% 30.25 in 10.0 mi Calm Calm - N/A   Scattered Clouds
6:53 AM 21.0 °F - 18.0 °F 88% 30.22 in 10.0 mi Calm Calm - N/A   Overcast
7:53 AM 26.1 °F - 19.0 °F 75% 30.19 in 10.0 mi Calm Calm - N/A   Overcast
8:53 AM 30.0 °F 22.4 °F 26.1 °F 85% 30.15 in 6.0 mi SE 8.1 mph - 0.00 in   Overcast
9:00 AM 30.2 °F 21.9 °F 26.6 °F 86% 30.14 in 7.0 mi SSE 9.2 mph - 0.01 in Rain Light Freezing Rain
9:53 AM 33.1 °F 27.7 °F 30.0 °F 89% 30.09 in 9.0 mi SSE 5.8 mph - 0.02 in Rain Light Freezing Rain
10:50 AM 35.6 °F 30.7 °F 33.8 °F 93% 30.04 in 6.0 mi South 5.8 mph - 0.00 in Rain Light Rain
10:53 AM 36.0 °F 32.1 °F 34.0 °F 93% 30.04 in 6.0 mi South 4.6 mph - 0.00 in Rain Light Rain
11:02 AM 35.6 °F 30.7 °F 33.8 °F 93% 30.02 in 7.0 mi SSE 5.8 mph - 0.01 in Rain Light Rain
11:20 AM 37.4 °F 31.4 °F 35.6 °F 93% 30.00 in 4.0 mi SSE 8.1 mph - 0.01 in   Overcast
11:32 AM 37.4 °F 32.8 °F 35.6 °F 93% 29.98 in 2.5 mi SSE 5.8 mph - 0.02 in   Overcast
11:53 AM 37.0 °F 30.4 °F 36.0 °F 96% 29.96 in 3.0 mi SSE 9.2 mph - 0.02 in   Overcast
12:24 PM 39.2 °F 34.2 °F 37.4 °F 93% 29.91 in 2.5 mi SSE 6.9 mph - 0.01 in Rain Light Rain
12:32 PM 39.2 °F 33.6 °F 37.4 °F 93% 29.90 in 3.0 mi South 8.1 mph - 0.01 in Rain Light Rain
12:53 PM 39.9 °F 34.5 °F 39.0 °F 97% 29.88 in 2.5 mi SSE 8.1 mph - 0.03 in Rain Light Rain
1:05 PM 39.2 °F 33.6 °F 39.2 °F 100% 29.87 in 4.0 mi South 8.1 mph - 0.01 in Rain Light Rain
1:53 PM 43.0 °F 39.5 °F 42.1 °F 97% 29.83 in 2.0 mi South 5.8 mph - 0.03 in Rain Light Rain
2:53 PM 45.0 °F 40.6 °F 44.1 °F 97% 29.78 in 6.0 mi South 8.1 mph - 0.01 in   Overcast
3:31 PM 44.6 °F 40.7 °F 44.6 °F 100% 29.76 in 2.0 mi South 6.9 mph - 0.00 in Rain Light Rain
3:53 PM 44.1 °F 41.5 °F 44.1 °F 100% 29.76 in 3.0 mi South 4.6 mph - 0.02 in   Overcast
4:53 PM 44.1 °F 42.5 °F 44.1 °F 100% 29.72 in 3.0 mi SSE 3.5 mph - 0.00 in   Overcast
5:53 PM 42.1 °F - 42.1 °F 100% 29.70 in 0.5 mi Calm Calm - N/A Fog Fog
6:04 PM 44.6 °F 42.2 °F 44.6 °F 100% 29.69 in 1.8 mi SSW 4.6 mph - N/A   Overcast
6:06 PM 44.6 °F 42.2 °F 44.6 °F 100% 29.69 in 3.0 mi SSW 4.6 mph - N/A   Overcast
6:13 PM 44.6 °F 42.2 °F 44.6 °F 100% 29.69 in 2.0 mi SSW 4.6 mph - N/A   Overcast
6:39 PM 44.6 °F 41.4 °F 44.6 °F 100% 29.69 in 4.0 mi SSW 5.8 mph - N/A   Overcast
6:53 PM 44.1 °F 40.8 °F 44.1 °F 100% 29.68 in 5.0 mi South 5.8 mph - N/A   Overcast
7:00 PM 44.6 °F 42.2 °F 44.6 °F 100% 29.68 in 4.0 mi SW 4.6 mph - N/A   Overcast
7:53 PM 44.1 °F 42.5 °F 44.1 °F 100% 29.66 in 6.0 mi SW 3.5 mph - N/A   Overcast
8:53 PM 45.0 °F 41.2 °F 44.1 °F 97% 29.63 in 10.0 mi SW 6.9 mph - N/A   Overcast
9:53 PM 45.0 °F 40.6 °F 44.1 °F 97% 29.62 in 10.0 mi SW 8.1 mph - N/A   Overcast
10:53 PM 45.0 °F 41.8 °F 43.0 °F 93% 29.60 in 10.0 mi West 5.8 mph - N/A   Overcast
11:53 PM 44.1 °F 40.1 °F 41.0 °F 89% 29.62 in 10.0 mi West 6.9 mph - N/A   Overcast